Weather History for Bettles, AK

Change the Weather History Date:

Saturday, November 30, 2013

  Actual Average Record
Temperature  
Mean Temperature -28 °F -  
Max Temperature -23 °F -2 °F 33 °F (2002)
Min Temperature -33 °F -17 °F -53 °F (1990)
Degree Days  
Heating Degree Days 93    
Moisture  
Dew Point -33 °F    
Average Humidity 71    
Maximum Humidity 77    
Minimum Humidity 58    
Precipitation  
Precipitation 0.00 in - - ()
Snow  
Snow 0.00 in - - ()
Snow Depth 19.00 in    
Sea Level Pressure  
Sea Level Pressure 30.65 in    
Wind  
Wind Speed 1 mph (North)    
Max Wind Speed 5 mph    
Max Gust Speed -    
Visibility 10 miles    
Events      
Averages and records for this station are not official NWS values.
T = Trace of Precipitation, MM = Missing Value Source: NWS Daily Summary

Daily Weather History Graph

Daily Weather History Graph

Search for Another Location

Airport:

Trip Planner

Search our weather history database for the weather conditions in past years. The results will help you decide how hot, cold, wet, or windy it might be!

Date:

Astronomy

Nov. 30, 2013 Rise Set
Actual Time 11:09 AM AKST 2:39 PM AKST
Civil Twilight 9:36 AM AKST 4:12 PM AKST
Nautical Twilight 8:20 AM AKST 5:28 PM AKST
Astronomical Twilight 7:14 AM AKST 6:34 PM AKST
Moon 7:10 AM AKST (11/30) 2:26 PM AKST (11/30)
Length of Visible Light 6h 35m
Length of Day
3h 29m
Waning Crescent, 6% of the Moon is Illuminated
Nov 30
Waning Crescent
Dec 2
New
Dec 9
First Quarter
Dec 17
Full
Dec 25
Last Quarter

Hourly Weather History & Observations

Time (AKST) Temp. Windchill Dew Point Humidity Pressure Visibility Wind Dir Wind Speed Gust Speed Precip Events Conditions
12:53 AM -27.0 °F - -32.1 °F 77% 30.45 in 10.0 mi Calm Calm - N/A   Clear
1:53 AM -29.9 °F -42.0 °F - N/A% 30.48 in 10.0 mi NW 3.5 mph - N/A   Clear
3:53 AM -27.9 °F -39.8 °F -34.1 °F 73% 30.52 in 10.0 mi NNE 3.5 mph - N/A   Clear
4:53 AM -25.1 °F -36.5 °F -31.0 °F 74% 30.53 in 10.0 mi North 3.5 mph - N/A   Clear
5:53 AM -25.1 °F - -31.0 °F 74% 30.57 in 10.0 mi Calm Calm - N/A   Clear
6:53 AM -29.0 °F - -35.0 °F 73% 30.59 in 10.0 mi Calm Calm - N/A   Clear
7:53 AM -27.0 °F - -32.1 °F 77% 30.61 in 10.0 mi Calm Calm - N/A   Clear
8:53 AM -29.0 °F - -35.0 °F 73% 30.64 in 10.0 mi Calm Calm - N/A   Clear
9:53 AM -29.9 °F - - N/A% 30.66 in 10.0 mi Calm Calm - N/A   Clear
10:53 AM -33.0 °F - - N/A% 30.67 in 10.0 mi Calm Calm - N/A   Partly Cloudy
11:53 AM -31.0 °F - - N/A% 30.68 in 10.0 mi Calm Calm - N/A   Partly Cloudy
12:53 PM -27.0 °F -38.7 °F -33.0 °F 73% 30.69 in 10.0 mi NNE 3.5 mph - N/A   Partly Cloudy
1:53 PM -25.1 °F - -31.0 °F 74% 30.69 in 10.0 mi Calm Calm - N/A   Partly Cloudy
2:53 PM -25.1 °F -36.5 °F -31.0 °F 74% 30.69 in 10.0 mi NE 3.5 mph - N/A   Partly Cloudy
3:53 PM -27.9 °F - -34.1 °F 73% 30.70 in 10.0 mi Calm Calm - N/A   Partly Cloudy
4:53 PM -29.0 °F - -35.0 °F 73% 30.70 in 10.0 mi Calm Calm - N/A   Partly Cloudy
5:53 PM -29.9 °F - - N/A% 30.71 in 10.0 mi Calm Calm - N/A   Partly Cloudy
6:53 PM -26.0 °F - -32.1 °F 73% 30.71 in 10.0 mi Calm Calm - N/A   Scattered Clouds
7:53 PM -26.0 °F - -32.1 °F 73% 30.71 in 10.0 mi Calm Calm - N/A   Mostly Cloudy
8:53 PM -27.0 °F -41.5 °F -33.0 °F 73% 30.72 in 10.0 mi NNW 4.6 mph - N/A   Partly Cloudy
9:53 PM -27.0 °F - -32.1 °F 77% 30.73 in 10.0 mi Calm Calm - N/A   Clear
10:53 PM -27.9 °F - -34.1 °F 73% 30.75 in 10.0 mi Calm Calm - N/A   Clear
11:53 PM -27.9 °F - -33.0 °F 77% 30.75 in 10.0 mi Calm Calm - N/A   Partly Cloudy